Tracking 25711 objects as of 22-May-2022
HD Live streaming from Space Station
objects crossing your sky now

FLOCK 4X 11

Track FLOCK 4X 11 now!
10-day predictions


NORAD ID: 51049
Int'l Code: 2022-002BT
Perigee: 522.1 km
Apogee: 536.1 km
Inclination: 97.5 °
Period: 95.1 minutes
Semi major axis: 6900 km
RCS: Unknown
Launch date: January 13, 2022
Source: United States (US)
Launch site: AIR FORCE EASTERN TEST RANGE (AFETR)
aabbcc
Your satellite tracking list
Your tracking list is empty




NASA's NSSDC Master Catalog

Two Line Element Set (TLE):
1 51049U 22002BT  22142.17481789  .00021671  00000-0  11704-2 0  9993
2 51049  97.4839 209.6551 0010139 152.6988 207.4779 15.14689601 19447
Source of the keplerian elements: AFSPC